Hopkins, SC

8:37 AM EST on January 24, 2017 (GMT -0500)
McEntire Angs

Weather History for KMMT - February, 2013

Change the Weather History Date:

Tuesday, February 19, 2013

  Actual Average Record
Temperature  
Mean Temperature 42 °F -  
Max Temperature 52 °F 58 °F 78 °F (2014)
Min Temperature 32 °F 38 °F 16 °F (2015)
Degree Days  
Heating Degree Days 23    
Moisture  
Dew Point 44 °F    
Average Humidity 91    
Maximum Humidity 100    
Minimum Humidity 71    
Precipitation  
Precipitation 0.21 in - - ()
Sea Level Pressure  
Sea Level Pressure 30.04 in    
Wind  
Wind Speed 7 mph (SSW)    
Max Wind Speed 16 mph    
Max Gust Speed 25 mph    
Visibility 6 miles    
Events Fog , Rain    
Averages and records for this station are not official NWS values.
T = Trace of Precipitation, MM = Missing Value Source: NWS Daily Summary

Daily Weather History Graph

Daily Weather History Graph

Search for Another Location

Airport or City:

Trip Planner

Search our weather history database for the weather conditions in past years. The results will help you decide how hot, cold, wet, or windy it might be!

Date:

Astronomy

Feb. 19, 2013 Rise Set
Actual Time 7:03 AM EST 6:11 PM EST
Civil Twilight 6:37 AM EST 6:36 PM EST
Nautical Twilight 6:08 AM EST 7:05 PM EST
Astronomical Twilight 5:39 AM EST 7:34 PM EST
Moon 12:50 PM EST (2/19) 2:25 AM EST (2/19)
Length of Visible Light 11h 58m
Length of Day
11h 07m
Waxing Gibbous, 67% of the Moon is Illuminated
Feb 19
Waxing Gibbous
Feb 25
Full
Mar 4
Last Quarter
Mar 11
New
Mar 19
First Quarter

Hourly Weather History & Observations

Time (EST) Temp. Windchill Dew Point Humidity Pressure Visibility Wind Dir Wind Speed Gust Speed Precip Events Conditions
12:58 AM 33.6 °F - 26.4 °F 75% 30.27 in 10.0 mi SSE 2.3 mph - N/A   Clear
1:58 AM 32.2 °F 27.7 °F 26.4 °F 79% 30.23 in 10.0 mi East 4.6 mph - N/A   Clear
2:58 AM 33.1 °F 27.7 °F 25.2 °F 73% 30.19 in 10.0 mi SE 5.8 mph - N/A   Clear
3:58 AM 34.9 °F 29.9 °F 26.2 °F 71% 30.15 in 10.0 mi East 5.8 mph - N/A   Clear
4:58 AM 33.6 °F - 27.7 °F 79% 30.15 in 10.0 mi East 2.3 mph - N/A   Scattered Clouds
5:58 AM 39.0 °F 34.8 °F 32.4 °F 77% 30.12 in 10.0 mi ESE 5.8 mph - N/A   Overcast
6:58 AM 40.1 °F - 34.5 °F 80% 30.14 in 10.0 mi NE 1.2 mph - N/A   Mostly Cloudy
7:58 AM 41.4 °F - 35.6 °F 80% 30.13 in 10.0 mi SE 2.3 mph - N/A   Overcast
8:26 AM 41.0 °F - 35.6 °F 81% 30.12 in 10.0 mi ESE 2.3 mph - N/A Rain Light Rain
8:58 AM 41.7 °F - 37.8 °F 86% 30.12 in 7.0 mi SE 2.3 mph - 0.01 in Rain Light Rain
9:58 AM 44.1 °F - 43.2 °F 97% 30.12 in 4.0 mi WSW 1.2 mph - 0.09 in Rain Rain
10:58 AM 49.1 °F - 47.1 °F 93% 30.09 in 5.0 mi South 10.4 mph - 0.08 in Rain Light Rain
11:35 AM 50.0 °F - 48.2 °F 94% 30.07 in 10.0 mi South 9.2 mph - N/A   Overcast
11:58 AM 51.3 °F - 49.1 °F 92% 30.05 in 7.0 mi South 15.0 mph 21.9 mph 0.01 in   Light Drizzle
12:15 PM 51.8 °F - 50.0 °F 94% 30.02 in 6.0 mi South 16.1 mph 25.3 mph N/A Rain Light Rain
12:51 PM 51.8 °F - 50.0 °F 94% 30.02 in 3.0 mi SW 13.8 mph - N/A Rain Light Rain
12:58 PM 52.2 °F - 49.8 °F 92% 30.04 in 3.0 mi SW 10.4 mph 19.6 mph 0.01 in Rain Light Rain
1:07 PM 51.8 °F - 50.0 °F 94% 30.01 in 5.0 mi SW 9.2 mph - N/A Rain Light Rain
1:17 PM 51.8 °F - 50.0 °F 94% 30.01 in 5.0 mi SSW 8.1 mph - N/A Rain Light Rain
1:27 PM 51.8 °F - 50.0 °F 94% 30.00 in 7.0 mi SSW 11.5 mph - N/A   Overcast
1:33 PM 51.8 °F - 50.0 °F 94% 30.00 in 4.0 mi SSW 11.5 mph 18.4 mph N/A   Light Drizzle
1:36 PM 51.8 °F - 50.0 °F 94% 29.99 in 4.0 mi SW 12.7 mph 19.6 mph N/A   Light Drizzle
1:48 PM 51.8 °F - 50.0 °F 94% 29.99 in 2.0 mi SSW 10.4 mph 19.6 mph N/A   Light Drizzle
1:51 PM 51.8 °F - 50.0 °F 94% 29.99 in 2.0 mi SW 9.2 mph - N/A   Light Drizzle
1:58 PM 52.0 °F - 50.9 °F 96% 30.00 in 2.0 mi SW 10.4 mph - 0.00 in   Light Drizzle
2:03 PM 51.8 °F - 50.0 °F 94% 29.99 in 2.5 mi SSW 10.4 mph - N/A   Light Drizzle
2:11 PM 51.8 °F - 51.8 °F 100% 29.99 in 2.5 mi SW 10.4 mph 20.7 mph N/A   Light Drizzle
2:24 PM 51.8 °F - 51.8 °F 100% 29.99 in 2.0 mi SW 11.5 mph - N/A   Light Drizzle
2:58 PM 51.8 °F - 51.8 °F 100% 29.99 in 3.0 mi SW 10.4 mph - 0.01 in   Overcast
3:01 PM 51.8 °F - 51.8 °F 100% 29.97 in 6.0 mi SW 8.1 mph - N/A   Light Drizzle
3:19 PM 51.8 °F - 51.8 °F 100% 29.97 in 7.0 mi SW 8.1 mph - N/A   Overcast
3:44 PM 51.8 °F - 51.8 °F 100% 29.97 in 7.0 mi WSW 8.1 mph - N/A   Overcast
3:58 PM 51.8 °F - 50.0 °F 94% 29.98 in 7.0 mi West 9.2 mph 18.4 mph 0.00 in   Overcast
4:03 PM 51.8 °F - 50.0 °F 94% 29.97 in 7.0 mi WSW 11.5 mph - N/A   Overcast
4:08 PM 51.8 °F - 50.0 °F 94% 29.97 in 7.0 mi West 9.2 mph - N/A   Overcast
4:58 PM 52.3 °F - 48.2 °F 86% 29.99 in 10.0 mi SW 10.4 mph - N/A   Mostly Cloudy
5:03 PM 51.8 °F - 48.2 °F 88% 29.97 in 10.0 mi WSW 10.4 mph - N/A   Mostly Cloudy
5:13 PM 51.8 °F - 46.4 °F 82% 29.97 in 10.0 mi WSW 9.2 mph 18.4 mph N/A   Mostly Cloudy
5:43 PM 51.8 °F - 46.4 °F 82% 29.98 in 10.0 mi SW 9.2 mph - N/A   Scattered Clouds
5:58 PM 51.3 °F - 45.9 °F 82% 29.99 in 10.0 mi SW 11.5 mph - N/A   Partly Cloudy
6:55 PM 48.2 °F - 44.6 °F 87% 30.02 in 10.0 mi WSW 6.9 mph - N/A   Clear
7:55 PM 45.9 °F 42.3 °F 44.1 °F 93% 30.01 in 10.0 mi WSW 6.9 mph - N/A   Clear
8:55 PM 42.8 °F 41.1 °F 41.0 °F 93% 30.02 in 7.0 mi WSW 3.5 mph - N/A Fog Shallow Fog
9:55 PM 41.7 °F - 41.4 °F 99% 30.04 in 1.5 mi Calm Calm - N/A   Clear
10:01 PM 39.2 °F - 39.2 °F 100% 30.04 in 0.5 mi Calm Calm - N/A Fog Fog
10:13 PM 35.6 °F - 35.6 °F 100% 30.04 in 0.1 mi Calm Calm - N/A Fog Fog
10:33 PM 37.4 °F 34.9 °F 35.6 °F 93% 30.04 in 0.2 mi North 3.5 mph - N/A Fog Fog
10:45 PM 37.4 °F 34.9 °F 37.4 °F 100% 30.04 in 7.0 mi NW 3.5 mph - N/A   Clear
10:55 PM 39.2 °F 35.0 °F 37.4 °F 93% 30.04 in 7.0 mi WNW 5.8 mph - N/A   Clear